Regional Weather Roundup
Issued by NWS

Home | Current Version | Previous Version | Text Only | Print | Product List | Glossary Off
Versions: 1 2 3 4 5 6 7 8 9 10 11 12 13 14 15 16 17 18 19 20 21 22 23 24 25 26 27 28

000
ASUS45 KCYS 172210
RWRWY

WYOMING REGIONAL WEATHER ROUNDUP
NATIONAL WEATHER SERVICE CHEYENNE WY
400 PM MDT THU APR 17 2014

NOTE:  "FAIR" INDICATES FEW OR NO CLOUDS BELOW 12,000 FEET
WITH NO SIGNIFICANT WEATHER AND/OR OBSTRUCTIONS TO VISIBILITY.

WYZ001-172300-
YELLOWSTONE NATIONAL PARK

CITY           SKY/WX    TMP DP  RH WIND       PRES   REMARKS
LK YELLOWSTONE   N/A     46  19  34 SW8       30.00F
W YELLOWSTONE  NOT AVBL

$$
WYZ002>013-054>058-071-098>099-172300-
NORTHERN WYOMING

CITY           SKY/WX    TMP DP  RH WIND       PRES   REMARKS
JACKSON        SUNNY     52  19  28 SW14      29.98F
CODY           MOSUNNY   61  23  23 W12       29.85F
GREYBULL       MOSUNNY   62  22  21 SE9G16    29.85F
WORLAND        SUNNY     62  21  20 S7        29.86F
SHERIDAN       SUNNY     59  30  33 E7        29.87F
BUFFALO        SUNNY     58  24  27 CALM      29.90F
GILLETTE       PTSUNNY   58  25  28 W9G21     29.90F
HULETT         MOCLDY    55  27  33 CALM      29.95
NEWCASTLE      FAIR      50  32  50 SE12G18   30.00

$$
WYZ014>020-022>026-101>103-172300-
CENTRAL WYOMING

CITY           SKY/WX    TMP DP  RH WIND       PRES   REMARKS
BIG PINEY      MOSUNNY   55  13  18 W13       30.01F
PINEDALE       PTCLDY    50  25  37 NE9       30.02F
DUBOIS         FAIR      50  16  25 NW16      29.96F
LANDER         MOSUNNY   60  25  26 VRB5      29.89F
RIVERTON       SUNNY     60  16  18 VRB5      29.91F
CASPER         SUNNY     60  19  20 SW15G23   29.92F
DOUGLAS        SUNNY     58  33  39 SE16      29.95F

$$
WYZ021-027>030-104>119-172300-
SOUTHERN WYOMING

CITY           SKY/WX    TMP DP  RH WIND       PRES   REMARKS
EVANSTON       SUNNY     58  23  26 SW16G36   30.02F
KEMMERER       CLEAR     55  19  24 W15G24    30.03F
FORT BRIDGER   FAIR      61  22  22 W17G25    30.04F
ROCK SPRINGS   NOT AVBL
DIXON          FAIR      60  19  20 SW13G22   30.06F
RAWLINS        SUNNY     57  15  19 SW22G29   30.01F
SARATOGA       FAIR      55  18  22 SW14G20   30.04F
LARAMIE        SUNNY     54  14  20 SW17      30.01F
CHEYENNE       MOSUNNY   56  24  29 S8G17     30.01F
TORRINGTON     SUNNY     60  28  29 SE12      29.98F
PINE BLUFFS    FAIR      55  23  28 SW3       30.02F

$$



USA.gov is the U.S. government's official web portal to all federal, state and local government web resources and services.